Location: Aalen
(48.8330°N, 10.1000°E)
Time: 18:44:03
(UTC+02:00)

Transit 4A - Pass Details

Date: 06 August 2021
Orbit: 871 x 974 km, 66.8° (Epoch: 16 September)

Event Time Altitude Azimuth Distance (km) Brightness Sun altitude
Rises 23:39:46 0° 197° (SSW) 3,485 - -20.6°
Reaches altitude 10° 23:42:19 10° 193° (SSW) 2,538 - -20.8°
Exits shadow 23:46:27 42° 164° (SSE) 1,231 8.0 -21.1°
Maximum altitude 23:47:59 54° 118° (ESE) 1,058 7.9 -21.2°
Drops below altitude 10° 23:53:38 10° 42° (NE) 2,527 10.5 -21.6°
Sets 23:56:10 0° 38° (NE) 3,470 11.3 -21.8°
